Regional Weather Roundup
Issued by NWS

Home | Current Version | Previous Version | Graphics & Text | Print | Product List | Glossary On
Versions: 1 2 3 4 5 6 7 8 9 10 11 12 13 14 15 16 17 18 19 20 21 22 23 24 25 26 27 28 29 30 31 32 33 34 35 36 37 38 39 40 41 42 43 44 45 46 47 48 49 50
000
ASUS43 KLOT 060412
RWRIL

ILLINOIS REGIONAL WEATHER ROUNDUP
NATIONAL WEATHER SERVICE CHICAGO/ROMEOVILLE IL
1100 PM CDT SUN JUL 05 2015

NOTE: "FAIR" INDICATES FEW OR NO CLOUDS BELOW 12,000 FEET WITH NO
SIGNIFICANT WEATHER AND/OR OBSTRUCTIONS TO VISIBILITY.

* THESE STATIONS ARE NOT UNDER NWS QUALITY CONTROL. THEY ALSO MAY NOT
  REPORT WEATHER SUCH AS PRECIPITATION OR FOG.

ILZ001-002-007-009-015-016-024-060500-
NORTHWEST ILLINOIS

CITY           SKY/WX    TMP DP  RH WIND       PRES   REMARKS
MOLINE         CLEAR     71  65  81 SE8       29.95F
STERLING*      CLEAR     70  64  83 SE5       30.00S
SAVANNA*       CLEAR     69  64  85 SE7       29.96F
$$

ILZ003-004-008-010-011-017-018-060500-
NORTH CENTRAL ILLINOIS

CITY           SKY/WX    TMP DP  RH WIND       PRES   REMARKS
ROCKFORD       PTCLDY    70  63  78 S7        30.01S
FREEPORT*      CLEAR     65  62  90 S7        30.00F
ROCHELLE*      CLEAR     65  64  94 S6        30.01F
DE KALB*       CLEAR     64  61  88 S7        30.02F
PERU*          CLEAR     71  64  79 S8        30.02S
$$

ILZ005-006-012>014-019>023-060500-
NORTHEAST ILLINOIS

CITY           SKY/WX    TMP DP  RH WIND       PRES   REMARKS
CHICAGO-OHARE  CLEAR     72  61  68 S7        30.00F
CHICAGO-MIDWAY FAIR      77  62  59 S8        30.01F
AURORA         CLEAR     70  61  73 S6        30.02S
LANSING*       CLEAR     68  60  75 S3        30.03F
JOLIET*        CLEAR     70  65  84 CALM      30.02S
WAUKEGAN       CLEAR     69  61  75 SE6       30.00F
DUPAGE AIRPORT CLEAR     68  61  78 S5        30.01F
KANKAKEE*      CLEAR     69  65  86 CALM      30.04S
WHEELING       CLEAR     70  61  73 SE5       30.01F
MORRIS*        CLEAR     69  64  83 S5        29.99F
ROMEOVILLE*    CLEAR     68  62  80 S3        30.02F
NORTHERLY ISL    N/A     68  64  87 SE5         N/A
$$

LMZ740>746-060500-
SOUTHERN LAKE MICHIGAN

STATION/POSITION SKY/WX   TEMP    WIND        PRES    VSBY  WAVE
                          AIR SEA DIR/SP/G                  HT/PER
                          (F)     (DEG/KT/KT) (MB)    (MI)  (FT/S)
HARRISON CRIB              69     140/  8/ 12   N/A
BURNHAM HARBOR             68     130/  2/  4   N/A
CALUMET HARBOR             72     120/  3/  5   N/A
BURNS HARBOR               74     190/  6/  8 1017.6S
MICHIGAN CITY              74     130/  6/  7   N/A
MICHIGAN CITY 6N           70 67  170/  6/  8   N/A           0
ST. JOSEPH                 70 68                N/A           0
$$

ILZ025>027-034>036-040-047-049-050-058-095>099-060500-
WEST-CENTRAL ILLINOIS

CITY           SKY/WX    TMP DP  RH WIND       PRES   REMARKS
QUINCY         CLEAR     73  68  84 SE7       29.97F HAZE
GALESBURG*     CLEAR     71  65  83 SE5       29.98F
MACOMB*        CLEAR     71  69  94 S5        30.00F FOG
JACKSONVILLE*  CLEAR     74  69  83 SE8       30.00F
PITTSFIELD*    CLEAR     72  69  88 SE6       30.00F FOG
$$

ILZ028>032-037-038-041>044-048-051>054-059>061-060500-
CENTRAL ILLINOIS

CITY           SKY/WX    TMP DP  RH WIND       PRES   REMARKS
PONTIAC        CLEAR     67  66  94 SE5       30.03S FOG
BLOOMINGTON    CLEAR     70  67  90 S9        30.04F
DECATUR        CLEAR     67  64  90 S5        30.04S
PEORIA         CLEAR     75  65  70 S7        30.00F
LACON*         CLEAR     71  64  81 SE7       30.00S
LINCOLN*       CLEAR     70  65  85 CALM      30.02F
SPRINGFIELD    CLEAR     74  66  76 S8        30.01F
TAYLORVILLE    CLEAR     70  64  83 S6        30.03F
$$

ILZ033-039-045-046-055>057-062-063-060500-
EAST-CENTRAL ILLINOIS

CITY           SKY/WX    TMP DP  RH WIND       PRES   REMARKS
CHAMPAIGN      CLEAR     68  65  90 SE5       30.04F FOG
DANVILLE*      CLEAR     64  63  96 S3        30.03S FOG
RANTOUL*       CLEAR     70  67  92 SE3       30.04F FOG
MATTOON        CLEAR     70  68  93 SE5       30.04F
PARIS*         CLEAR     69  67  94 SE3       30.06F FOG
$$

ILZ079-100>102-060500-
SOUTHWEST ILLINOIS

CITY           SKY/WX    TMP DP  RH WIND       PRES   REMARKS
ALTON          CLEAR     72  72 100 SE6       30.02F
BELLEVILLE     FAIR      73  70  90 SE7       30.01F
CAHOKIA*       PTCLDY    75  68  78 SE7       30.01F
SPARTA*        CLEAR     73  68  83 SE3       30.05F
$$

ILZ064>066-069>071-074>076-080>082-084>086-088>090-092>094-060500-
SOUTH-CENTRAL ILLINOIS

CITY           SKY/WX    TMP DP  RH WIND       PRES   REMARKS
CARBONDALE     CLEAR     71  69  93 CALM      30.04F FOG
CAIRO*         CLEAR     73  72  95 CALM      30.05S FOG
EFFINGHAM*     CLEAR     70  67  90 E3        30.06F FOG
MARION         CLEAR     72  70  94 CALM      30.05F FOG
MT. VERNON     CLEAR     68  63  83 CALM      30.05F
CENTRALIA*     CLEAR     69  65  86 SE3       30.05S
SALEM*         CLEAR     73  67  80 CALM      30.06F
$$

ILZ067-068-072-073-078-083-087-091-060500-
SOUTHEAST ILLINOIS

CITY           SKY/WX    TMP DP  RH WIND       PRES   REMARKS
LAWRENCEVILLE  CLEAR     72  69  90 SE5       30.06F
FLORA*         CLEAR     70  69  97 CALM      30.05F FOG
FAIRFIELD*     CLEAR     71  70  95 CALM      30.04F FOG
HARRISBURG*    CLEAR     69  69 100 CALM      30.07F FOG
ROBINSON*      CLEAR     72  69  89 S5        30.07S
CARMI*         CLEAR     71  65  82 CALM      30.05F HAZE
$$

ABBREVIATIONS USED IN REMARKS
   TC - TEMPERATURE IN CELSIUS
  WCI - WIND CHILL INDEX
   HX - HEAT INDEX
  VSB - VISIBILITY
$$



USA.gov is the U.S. government's official web portal to all federal, state and local government web resources and services.